COSMOS 1603 DEB, 43312

Orbit data source: Space-Track

COSMOS 1603 DEB, 43312 is space debris in LEO originally from a launch on Fri, 28 Sep 1984 UTC launched from the Tyuratam Missile And Space Complex (TTMTR). Debris objects in space refer to the collection of defunct objects orbiting the Earth. Examples of debris include non-operational satellites, rocket bodies, and fragments generated from explosions, collisions, or faulty payload assembly.

Loading next visibility...
Identifier
43312, 1984-106AE
Orbit
LEO
Country
Flag of CISCIS
Related business
Manufacturer
Unknown
Mission
Spacecraft
Bus & Motor
Unknown
Mass
Unknown
Launch date (UTC)
1984-09-28 (41 years ago)
Launch vehicle
Unknown
Launch site
Tyuratam Missile And Space Complex (TTMTR)
Object type
Payload
Rocket body
Debris
Shape & HBR
Unknown shape, 0.1 m
Radar Cross Section
Small (<0.1 m²)

Expand to show TLE details & history
Last TLE update: 1 day ago

TLE from 1 day ago
0 COSMOS 1603 DEB
1 43312U 84106AE  25306.24164796  .00001484  00000-0  70175-3 0  9997
2 43312  71.0225 139.1857 0018787 219.2952 140.6812 14.21245256502435
Epoch: 2025-11-02T05:47Z
TLE epoch observation values (Epoch: 2025-11-02T05:47:58.383Z)
Latitude
-0.00002°
Longitude
10.43224°
Altitude
834.029 km
Speed
7.431 km/s
True Right ascension
09h 16m 44s
True Declination
0° 00' 00"
Sunlit
Object was in daylight at epoch
Visualization orbit readout
Latitude
Unknown
Longitude
Unknown
Altitude
Unknown
Speed
Unknown
Apparent Right ascension
Unknown
Apparent Declination
Unknown
Sunlit
N/A
Visualization observer readout
Local Sidereal Time
09:50:58
Azimuth
Unknown
Elevation
Unknown
Doppler factor
Unknown
Orbital elements
Apogee altitude
832.582 km
Perigee altitude
805.54 km
Semi-major axis
7,197.198 km
Eccentricity
0.00188
Inclination
71.0225°
RAAN
139.1857°
Arg. of periapsis
219.2952°
True anomaly
140.81736°
Mean anomaly
140.6812°
Eccentric anomaly
140.74931°
Mean motion
3.55466 °/min
Orbital period
101.28 mins
BSTAR
0.00070175
Loading maneuver chart data...
Computing Atmospheric mass density...

Documentation

Showing up to 5 results
|